[[{"header":{"parameterUnit":"m.s-1","parameterCategory":1,"la1":30.2991,"la2":30.254,"lo1":-89.0895,"lo2":-89.0444,"dy":0.0017,"dx":0.0017,"nx":28,"ny":28,"refTime":"2023-09-15T09:00:00:Z","depth":0,"parameterNumber":2,"parameterNumberName":"U-component_of_WINDS"},"data":[0,0,0,0,0,0,0,0,0,0,0,0,0,0,0,0,0,0,0,0,0,0,0,0,0,0,0,0,0,0,0,0,0,0,0,0,0,0,0,0,0,0,0,0,0,0,0,0,0,0,0,0,0,0,0,0,0,0,-0.0939,-0.0938,0,-0.0895,-0.0895,-0.0894,-0.0831,-0.083,-0.0829,-0.0828,-0.0784,-0.0784,-0.0784,0,0,0,0,0,0,0,0,0,0,0,0,0,-0.097,-0.0969,-0.0939,-0.0938,-0.0938,-0.0895,-0.0895,-0.0894,-0.0831,-0.083,-0.0829,-0.0828,-0.0784,-0.0784,-0.0784,0,0,0,0,0,0,0,0,0,0,0,0,0,-0.0944,-0.0969,-0.0939,-0.0901,-0.0898,-0.0895,-0.0895,-0.0894,-0.0832,-0.083,-0.0828,-0.0827,-0.0784,-0.0784,-0.0784,-0.0815,0,0,-0.0783,-0.0783,0,0,0,0,0,0,0,0,-0.0946,-0.0943,-0.0908,-0.0904,-0.09,-0.0867,-0.0889,-0.0867,-0.0832,-0.0857,-0.0828,-0.0826,-0.0813,-0.081,-0.0806,-0.0813,-0.0811,-0.0783,-0.0783,-0.0783,-0.0783,0,0,0,0,0,0,0,-0.0948,-0.0945,-0.0922,-0.0907,-0.0902,-0.0887,-0.0882,-0.0885,-0.0845,-0.0854,-0.085,-0.0845,-0.0811,-0.0806,-0.0804,-0.081,-0.0783,-0.0783,-0.0783,-0.0783,-0.0842,-0.0843,0,0,0,0,0,0,-0.0955,-0.0947,-0.0923,-0.092,-0.0919,-0.0888,-0.0882,-0.0879,-0.0844,-0.0838,-0.0847,-0.0843,-0.0807,-0.0805,-0.0803,-0.0837,-0.0783,-0.0783,-0.0783,-0.084,-0.0842,-0.0844,0,0,0,0,0,0,-0.0956,-0.0953,-0.0925,-0.0932,-0.0927,-0.0889,-0.0887,-0.0879,-0.0875,-0.0839,-0.0831,-0.085,-0.0806,-0.0803,-0.0812,-0.0835,-0.0783,-0.0782,-0.0838,-0.0841,-0.0843,-0.0907,0,0,0,0,0,0,-0.0957,-0.0954,-0.0965,-0.0933,-0.0927,-0.0935,-0.0888,-0.0879,-0.0874,-0.0868,-0.0839,-0.0833,-0.0804,-0.0813,-0.0812,-0.0833,-0.0782,-0.0836,-0.0839,-0.0842,-0.0902,-0.0911,-0.0918,0,0,0,0,0,-0.0958,-0.0985,-0.0966,-0.0963,-0.094,-0.0937,-0.0933,-0.09,-0.0876,-0.0887,-0.0864,-0.0834,-0.0833,-0.0815,-0.0813,-0.0835,-0.0834,-0.0838,-0.0842,-0.0899,-0.0909,-0.0918,0,0,0,0,0,0,-0.1021,-0.098,-0.0959,-0.0975,-0.096,-0.0926,-0.0939,-0.0912,-0.0903,-0.0898,-0.0857,-0.0851,-0.0866,-0.0851,-0.0832,-0.0863,-0.0829,-0.0833,-0.0872,-0.0882,-0.089,-0.0893,-0.0782,0,0,0,0,0,-0.1037,-0.1037,-0.1001,-0.1019,-0.1013,-0.0978,-0.0975,-0.095,-0.0933,-0.0926,-0.0903,-0.0888,-0.0884,-0.0882,-0.0877,-0.09,-0.0893,-0.0914,-0.0922,-0.0929,-0.0933,-0.0944,-0.0953,-0.0857,-0.0857,-0.0857,0,0,-0.1069,-0.1047,-0.1049,-0.1031,-0.1017,-0.1018,-0.0972,-0.0976,-0.0977,-0.0926,-0.0934,-0.0917,-0.0897,-0.0914,-0.0921,-0.0902,-0.0958,-0.0934,-0.0939,-0.0939,-0.0949,-0.0958,-0.0967,-0.0859,-0.0859,-0.0858,0,0,-0.1129,-0.1112,-0.1126,-0.1112,-0.109,-0.1066,-0.107,-0.104,-0.1027,-0.1034,-0.0997,-0.0997,-0.0991,-0.0979,-0.0972,-0.1028,-0.1,-0.1027,-0.1069,-0.1081,-0.1089,-0.1096,-0.1116,-0.1124,-0.1031,-0.1031,-0.1032,0,-0.1173,-0.1173,-0.1136,-0.1142,-0.1136,-0.109,-0.1104,-0.1093,-0.107,-0.1067,-0.1047,-0.1039,-0.1022,-0.1036,-0.105,-0.1045,-0.1048,-0.103,-0.1091,-0.1097,-0.1103,-0.1122,-0.113,-0.1035,-0.1035,-0.1034,-0.1034,0,-0.1227,-0.1228,-0.1242,-0.1221,-0.1217,-0.1227,-0.1192,-0.1192,-0.1168,-0.1147,-0.1155,-0.1133,-0.1123,-0.1124,-0.1101,-0.1135,-0.1124,-0.1098,-0.1063,-0.1116,-0.1133,-0.114,-0.104,-0.1039,-0.1038,-0.1037,0,0,-0.1325,-0.1285,-0.129,-0.1281,-0.1254,-0.1254,-0.1262,-0.1252,-0.1252,-0.1239,-0.1245,-0.1241,-0.1217,-0.1209,-0.1184,-0.1195,-0.1241,-0.1167,-0.1166,-0.1182,-0.1278,-0.1298,-0.1307,-0.1222,-0.1224,-0.1225,-0.1279,0,-0.138,-0.1391,-0.1359,-0.1379,-0.1379,-0.1337,-0.1344,-0.1329,-0.1309,-0.1307,-0.1286,-0.1284,-0.1252,-0.1247,-0.1256,-0.1234,-0.126,-0.1229,-0.1228,-0.1229,-0.1235,-0.1315,-0.1336,-0.1389,-0.1286,-0.1287,-0.1288,0,-0.1445,-0.1435,-0.1455,-0.1427,-0.1426,-0.1433,-0.1421,-0.142,-0.1402,-0.1387,-0.1379,-0.135,-0.1357,-0.1323,-0.1332,-0.1312,-0.1309,-0.1299,-0.13,-0.1298,-0.1261,-0.1316,-0.1405,-0.1413,-0.1298,-0.1297,-0.1296,0,-0.1515,-0.1506,-0.1517,-0.151,-0.1478,-0.1484,-0.1471,-0.1451,-0.1447,-0.1437,-0.1434,-0.1425,-0.142,-0.1414,-0.1384,-0.1362,-0.1397,-0.136,-0.1385,-0.1386,-0.1394,-0.1394,-0.1484,-0.1393,-0.1393,-0.1393,-0.1392,0,-0.158,-0.1594,-0.1548,-0.1555,-0.1569,-0.1532,-0.1548,-0.153,-0.1513,-0.1516,-0.1479,-0.1483,-0.1443,-0.1442,-0.1419,-0.143,-0.1428,-0.1417,-0.141,-0.142,-0.1421,-0.1418,-0.1413,-0.1395,-0.1394,-0.1394,-0.1393,0,-0.166,-0.163,-0.1639,-0.1608,-0.16,-0.1612,-0.1586,-0.1591,-0.157,-0.1574,-0.1573,-0.154,-0.1537,-0.1506,-0.1497,-0.1481,-0.1502,-0.1489,-0.1508,-0.1504,-0.1531,-0.1529,-0.1621,-0.1631,-0.1534,-0.1535,-0.1536,0,-0.1703,-0.1713,-0.1683,-0.1682,-0.1671,-0.167,-0.1666,-0.163,-0.1627,-0.1608,-0.1616,-0.161,-0.1604,-0.1602,-0.1577,-0.157,-0.1556,-0.1589,-0.1555,-0.1565,-0.1557,-0.1557,-0.1558,-0.1597,-0.1598,-0.1599,-0.16,0,-0.1783,-0.1768,-0.1763,-0.1753,-0.1749,-0.174,-0.1728,-0.173,-0.1691,-0.169,-0.1687,-0.1682,-0.1673,-0.1668,-0.1657,-0.1644,-0.1616,-0.1611,-0.1616,-0.1626,-0.1637,-0.1632,-0.1528,-0.1609,-0.1608,-0.1607,-0.1607,-0.1606,-0.1846,-0.1853,-0.1833,-0.1829,-0.1817,-0.1807,-0.181,-0.1789,-0.1786,-0.1776,-0.1755,-0.1756,-0.1738,-0.172,-0.1709,-0.1709,-0.1692,-0.17,-0.1702,-0.1705,-0.171,-0.1637,-0.1707,-0.1707,-0.1706,-0.1706,-0.1706,0,-0.1924,-0.1909,-0.1906,-0.1891,-0.1888,-0.1862,-0.1848,-0.1848,-0.1848,-0.1834,-0.1829,-0.1826,-0.1821,-0.1796,-0.1789,-0.1794,-0.1781,-0.1793,-0.1792,-0.179,-0.1725,-0.1722,-0.1804,-0.1804,-0.1804,-0.1804,-0.1804,-0.1804,-0.1964,-0.1975,-0.1957,-0.1961,-0.1946,-0.1946,-0.1941,-0.1932,-0.192,-0.1918,-0.1914,-0.1898,-0.188,-0.1871,-0.1866,-0.1859,-0.1858,-0.1875,-0.1863,-0.1804,-0.1794,-0.1785,-0.1781,-0.1875,-0.1875,-0.1927,-0.1928,-0.1928]},{"header":{"parameterUnit":"m.s-1","parameterCategory":1,"la1":30.2991,"la2":30.254,"lo1":-89.0895,"lo2":-89.0444,"dy":0.0017,"dx":0.0017,"nx":28,"ny":28,"refTime":"2023-09-15T09:00:00:Z","depth":0,"parameterNumber":3,"parameterNumberName":"V-component_of_WINDS"},"data":[0,0,0,0,0,0,0,0,0,0,0,0,0,0,0,0,0,0,0,0,0,0,0,0,0,0,0,0,0,0,0,0,0,0,0,0,0,0,0,0,0,0,0,0,0,0,0,0,0,0,0,0,0,0,0,0,0,0,-1.0452,-1.0452,0,-1.0466,-1.0466,-1.0466,-1.0462,-1.0462,-1.0462,-1.0462,-1.0475,-1.0475,-1.0476,0,0,0,0,0,0,0,0,0,0,0,0,0,-1.042,-1.0421,-1.0452,-1.0452,-1.0452,-1.0466,-1.0466,-1.0466,-1.0462,-1.0462,-1.0462,-1.0461,-1.0474,-1.0475,-1.0476,0,0,0,0,0,0,0,0,0,0,0,0,0,-1.0434,-1.0421,-1.0452,-1.0452,-1.0452,-1.0466,-1.0466,-1.0466,-1.0462,-1.0462,-1.0462,-1.0461,-1.0474,-1.0475,-1.0476,-1.049,0,0,-1.0479,-1.0479,0,0,0,0,0,0,0,0,-1.0433,-1.0435,-1.0452,-1.0452,-1.0452,-1.0462,-1.046,-1.0474,-1.0463,-1.0458,-1.0462,-1.0461,-1.0471,-1.0472,-1.0475,-1.0491,-1.0491,-1.0479,-1.0479,-1.048,-1.048,0,0,0,0,0,0,0,-1.0432,-1.0435,-1.0457,-1.0452,-1.0452,-1.0451,-1.0452,-1.0462,-1.0467,-1.0459,-1.0459,-1.046,-1.0471,-1.0474,-1.0476,-1.0491,-1.0479,-1.048,-1.048,-1.0481,-1.052,-1.052,0,0,0,0,0,0,-1.0432,-1.0434,-1.0457,-1.0458,-1.0442,-1.0452,-1.0453,-1.0459,-1.0467,-1.0467,-1.0461,-1.046,-1.0473,-1.0475,-1.0476,-1.0494,-1.048,-1.0481,-1.0481,-1.0519,-1.052,-1.0521,0,0,0,0,0,0,-1.0431,-1.0434,-1.0456,-1.0446,-1.0449,-1.0453,-1.0459,-1.046,-1.0464,-1.0468,-1.0469,-1.0464,-1.0473,-1.0475,-1.0487,-1.0494,-1.0481,-1.0482,-1.0519,-1.052,-1.052,-1.053,0,0,0,0,0,0,-1.043,-1.0433,-1.0439,-1.0446,-1.0449,-1.0467,-1.046,-1.046,-1.0465,-1.0465,-1.0471,-1.0472,-1.0473,-1.0486,-1.0488,-1.0495,-1.0483,-1.0518,-1.0519,-1.052,-1.0529,-1.0531,-1.0532,0,0,0,0,0,-1.0429,-1.044,-1.0439,-1.0442,-1.0456,-1.0468,-1.0469,-1.047,-1.0466,-1.0472,-1.0475,-1.0472,-1.0493,-1.0487,-1.0489,-1.0497,-1.0518,-1.0519,-1.052,-1.0528,-1.053,-1.0532,0,0,0,0,0,0,-1.0433,-1.0441,-1.044,-1.0454,-1.046,-1.0467,-1.0474,-1.0473,-1.048,-1.0479,-1.0479,-1.0481,-1.0494,-1.0496,-1.0489,-1.0512,-1.0505,-1.0506,-1.051,-1.0512,-1.0514,-1.0513,-1.0483,0,0,0,0,0,-1.0436,-1.0445,-1.0451,-1.0463,-1.0466,-1.047,-1.0474,-1.0475,-1.0481,-1.0484,-1.0487,-1.0493,-1.0501,-1.0507,-1.0514,-1.0529,-1.0531,-1.0535,-1.0537,-1.0539,-1.054,-1.055,-1.0552,-1.0524,-1.0524,-1.0524,0,0,-1.0441,-1.0447,-1.0452,-1.0464,-1.0469,-1.0478,-1.0472,-1.0481,-1.0488,-1.0485,-1.0497,-1.05,-1.0507,-1.052,-1.0527,-1.0523,-1.0548,-1.054,-1.0541,-1.0542,-1.0551,-1.0554,-1.0556,-1.0525,-1.0525,-1.0525,0,0,-1.0457,-1.0461,-1.0472,-1.0478,-1.0485,-1.0488,-1.049,-1.0497,-1.0499,-1.0512,-1.051,-1.0518,-1.0531,-1.0536,-1.0541,-1.0559,-1.0557,-1.0561,-1.0571,-1.058,-1.0582,-1.0584,-1.0592,-1.0594,-1.0563,-1.0563,-1.0563,0,-1.0462,-1.0477,-1.0478,-1.0489,-1.0494,-1.0492,-1.0503,-1.0508,-1.0517,-1.0521,-1.0517,-1.0535,-1.0539,-1.0555,-1.056,-1.0563,-1.0566,-1.0561,-1.0581,-1.0583,-1.0585,-1.0593,-1.0595,-1.0563,-1.0563,-1.0563,-1.0563,0,-1.0484,-1.0494,-1.0502,-1.0513,-1.0519,-1.0529,-1.0532,-1.0538,-1.0538,-1.0541,-1.0554,-1.0559,-1.0568,-1.0572,-1.0571,-1.0588,-1.0585,-1.0581,-1.0574,-1.0589,-1.0596,-1.0598,-1.0564,-1.0564,-1.0564,-1.0563,0,0,-1.0502,-1.0514,-1.0517,-1.0523,-1.0531,-1.0539,-1.055,-1.0559,-1.0565,-1.0572,-1.0581,-1.0593,-1.059,-1.0595,-1.0595,-1.0603,-1.0618,-1.0598,-1.0598,-1.0603,-1.0638,-1.0642,-1.0645,-1.0617,-1.0617,-1.0618,-1.0638,0,-1.0519,-1.0539,-1.0541,-1.0559,-1.0569,-1.0567,-1.0577,-1.0583,-1.0586,-1.0594,-1.0597,-1.0607,-1.0601,-1.0604,-1.0611,-1.0615,-1.0626,-1.0613,-1.0626,-1.0627,-1.0626,-1.0649,-1.0653,-1.0672,-1.0641,-1.0641,-1.0641,0,-1.0542,-1.055,-1.057,-1.0578,-1.0582,-1.0591,-1.0601,-1.0609,-1.0616,-1.0618,-1.0624,-1.0623,-1.0634,-1.0626,-1.0642,-1.0634,-1.0639,-1.0641,-1.0642,-1.0644,-1.0636,-1.0653,-1.0678,-1.0681,-1.0645,-1.0645,-1.0645,0,-1.0555,-1.0571,-1.0585,-1.0589,-1.0599,-1.0606,-1.061,-1.0617,-1.0623,-1.0631,-1.0635,-1.0644,-1.065,-1.0656,-1.0658,-1.0652,-1.0675,-1.0666,-1.0677,-1.0677,-1.0683,-1.0683,-1.071,-1.0684,-1.0684,-1.0684,-1.0684,0,-1.0574,-1.0586,-1.0591,-1.06,-1.0614,-1.0616,-1.0629,-1.0633,-1.0639,-1.0649,-1.0647,-1.0656,-1.0657,-1.0667,-1.0668,-1.0682,-1.0683,-1.0685,-1.0686,-1.0686,-1.0686,-1.0691,-1.069,-1.0684,-1.0684,-1.0684,-1.0684,0,-1.0592,-1.0595,-1.0611,-1.0619,-1.0622,-1.0632,-1.0639,-1.0647,-1.065,-1.0662,-1.0665,-1.067,-1.0681,-1.0683,-1.0695,-1.0696,-1.0713,-1.0711,-1.0711,-1.0711,-1.0722,-1.0722,-1.0755,-1.076,-1.0729,-1.0729,-1.0729,0,-1.0604,-1.0614,-1.0624,-1.0631,-1.0636,-1.0646,-1.0653,-1.0655,-1.0662,-1.0672,-1.0679,-1.069,-1.0699,-1.0716,-1.072,-1.073,-1.0729,-1.074,-1.0731,-1.0732,-1.0731,-1.0731,-1.0733,-1.0743,-1.0743,-1.0743,-1.0743,0,-1.0627,-1.0629,-1.0639,-1.065,-1.0658,-1.0667,-1.0675,-1.068,-1.0683,-1.0691,-1.0703,-1.071,-1.0723,-1.0734,-1.0744,-1.0748,-1.0747,-1.0746,-1.0749,-1.0751,-1.0751,-1.0752,-1.0718,-1.0746,-1.0745,-1.0745,-1.0745,-1.0745,-1.0643,-1.0652,-1.0661,-1.0673,-1.068,-1.0687,-1.0696,-1.0701,-1.0711,-1.0723,-1.0723,-1.0736,-1.0744,-1.0757,-1.0762,-1.0772,-1.0769,-1.0773,-1.0774,-1.0776,-1.0778,-1.0748,-1.0774,-1.0773,-1.0773,-1.0773,-1.0773,0,-1.0667,-1.0673,-1.0684,-1.0696,-1.0705,-1.0703,-1.0712,-1.072,-1.0732,-1.074,-1.0749,-1.0763,-1.0774,-1.0779,-1.079,-1.0797,-1.0797,-1.08,-1.08,-1.0801,-1.0779,-1.0776,-1.08,-1.08,-1.08,-1.08,-1.08,-1.08,-1.0681,-1.0697,-1.07,-1.0719,-1.0724,-1.0738,-1.0744,-1.0751,-1.0757,-1.0773,-1.0783,-1.0786,-1.0793,-1.0805,-1.0815,-1.0816,-1.0821,-1.0825,-1.0826,-1.0805,-1.0803,-1.08,-1.0797,-1.0826,-1.0826,-1.0848,-1.0848,-1.0848]}]]